When you browse on this site, cookies collect data to enhance your experience and personalize the content and advertising you see.
Visit our Privacy Policy to learn more. By continuing to use the site, you agree to this use of cookies and data.
  • în România
  • Lista ţărilor
  • Pe 7 zile
  • Temperatura apei
  • Hartă satelitară
  • Meteo pe hartă
  • Widget-uri
  • user-avatar
    Intrare

    Meteo pe oră la Newcastle

    Astăzi, 21 Noiembrie, Miercuri

    Timp Temperatura Precipitaţii Vânt Presiune Umiditate
    00:00 +21°C° 0.1 mm 4 m/s 754 mmHg 80%
    01:00 +20°C° 0.1 mm 3 m/s 753 mmHg 81%
    02:00 +21°C° 0.1 mm 3 m/s 753 mmHg 80%
    03:00 +21°C° 0.1 mm 3 m/s 752 mmHg 78%
    04:00 +23°C° 0 mm 2 m/s 752 mmHg 73%
    05:00 +23°C° 0.3 mm 2 m/s 752 mmHg 75%
    06:00 +24°C° 0.3 mm 3 m/s 752 mmHg 76%
    07:00 +25°C° 0.3 mm 3 m/s 752 mmHg 77%
    08:00 +28°C° 0 mm 4 m/s 751 mmHg 66%
    09:00 +30°C° 0 mm 4 m/s 751 mmHg 55%
    10:00 +34°C° 0 mm 5 m/s 751 mmHg 43%
    11:00 +33°C° 0 mm 5 m/s 751 mmHg 47%
    12:00 +32°C° 0 mm 5 m/s 750 mmHg 50%
    13:00 +30°C° 0 mm 4 m/s 750 mmHg 53%
    14:00 +30°C° 0 mm 4 m/s 750 mmHg 53%
    15:00 +30°C° 0 mm 4 m/s 750 mmHg 53%
    16:00 +29°C° 0 mm 4 m/s 750 mmHg 53%
    17:00 +28°C° 0 mm 4 m/s 750 mmHg 57%
    18:00 +26°C° 0 mm 4 m/s 750 mmHg 60%
    19:00 +25°C° 0 mm 4 m/s 750 mmHg 64%
    20:00 +23°C° 0.1 mm 4 m/s 750 mmHg 70%
    21:00 +22°C° 0.1 mm 4 m/s 750 mmHg 76%
    22:00 +21°C° 0.1 mm 4 m/s 750 mmHg 83%
    23:00 +21°C° 0.6 mm 4 m/s 750 mmHg 86%

    Mâine, 22 Noiembrie, Joi

    Timp Temperatura Precipitaţii Vânt Presiune Umiditate
    00:00 +20°C° 0.6 mm 4 m/s 749 mmHg 90%
    01:00 +20°C° 0.6 mm 4 m/s 749 mmHg 94%
    02:00 +20°C° 0 mm 4 m/s 749 mmHg 94%
    03:00 +20°C° 0 mm 4 m/s 748 mmHg 94%
    04:00 +19°C° 0 mm 4 m/s 748 mmHg 95%
    05:00 +20°C° 0 mm 5 m/s 748 mmHg 85%
    06:00 +21°C° 0 mm 5 m/s 749 mmHg 76%
    07:00 +21°C° 0 mm 6 m/s 749 mmHg 66%
    08:00 +23°C° 0 mm 6 m/s 749 mmHg 54%
    09:00 +24°C° 0 mm 7 m/s 749 mmHg 42%
    10:00 +26°C° 0 mm 7 m/s 749 mmHg 29%
    11:00 +27°C° 0 mm 7 m/s 749 mmHg 25%
    12:00 +27°C° 0 mm 8 m/s 748 mmHg 22%
    13:00 +28°C° 0 mm 8 m/s 748 mmHg 18%
    14:00 +27°C° 0 mm 8 m/s 748 mmHg 18%
    15:00 +27°C° 0 mm 8 m/s 748 mmHg 17%
    16:00 +26°C° 0 mm 8 m/s 748 mmHg 17%
    17:00 +23°C° 0 mm 7 m/s 749 mmHg 22%
    18:00 +21°C° 0 mm 6 m/s 749 mmHg 27%
    19:00 +19°C° 0 mm 5 m/s 750 mmHg 31%
    20:00 +18°C° 0 mm 7 m/s 750 mmHg 34%
    21:00 +17°C° 0 mm 8 m/s 751 mmHg 36%
    22:00 +16°C° 0 mm 9 m/s 751 mmHg 39%
    23:00 +16°C° 0 mm 9 m/s 751 mmHg 41%

    Poimâine, 23 Noiembrie, Vineri

    Timp Temperatura Precipitaţii Vânt Presiune Umiditate
    00:00 +16°C° 0 mm 9 m/s 751 mmHg 43%
    01:00 +15°C° 0 mm 8 m/s 751 mmHg 44%
    02:00 +15°C° 0 mm 8 m/s 751 mmHg 46%
    03:00 +14°C° 0 mm 7 m/s 750 mmHg 48%
    04:00 +14°C° 0 mm 7 m/s 750 mmHg 49%
    05:00 +15°C° 0 mm 7 m/s 751 mmHg 46%
    06:00 +16°C° 0 mm 8 m/s 751 mmHg 44%
    07:00 +17°C° 0 mm 9 m/s 751 mmHg 41%
    08:00 +18°C° 0 mm 8 m/s 751 mmHg 37%
    09:00 +21°C° 0 mm 8 m/s 751 mmHg 32%
    10:00 +23°C° 0 mm 8 m/s 750 mmHg 28%
    11:00 +24°C° 0 mm 7 m/s 750 mmHg 26%
    12:00 +26°C° 0 mm 7 m/s 749 mmHg 24%
    13:00 +27°C° 0 mm 7 m/s 748 mmHg 22%
    14:00 +27°C° 0 mm 7 m/s 748 mmHg 22%
    15:00 +26°C° 0 mm 7 m/s 748 mmHg 22%
    16:00 +26°C° 0 mm 7 m/s 747 mmHg 23%
    17:00 +23°C° 0 mm 8 m/s 748 mmHg 26%
    18:00 +21°C° 0 mm 8 m/s 749 mmHg 30%
    19:00 +18°C° 0 mm 8 m/s 749 mmHg 33%
    20:00 +17°C° 0 mm 9 m/s 750 mmHg 35%
    21:00 +16°C° 0 mm 9 m/s 750 mmHg 37%
    22:00 +16°C° 0 mm 9 m/s 750 mmHg 39%
    23:00 +16°C° 0 mm 9 m/s 750 mmHg 41%

    24 Noiembrie, Sâmbătă

    Timp Temperatura Precipitaţii Vânt Presiune Umiditate
    00:00 +17°C° 0 mm 9 m/s 749 mmHg 42%
    01:00 +17°C° 0 mm 9 m/s 749 mmHg 44%
    02:00 +17°C° 0 mm 9 m/s 749 mmHg 46%
    03:00 +17°C° 0 mm 9 m/s 749 mmHg 49%
    04:00 +16°C° 0 mm 9 m/s 749 mmHg 51%
    05:00 +17°C° 0 mm 9 m/s 749 mmHg 51%
    06:00 +18°C° 0 mm 9 m/s 749 mmHg 50%
    07:00 +18°C° 0 mm 9 m/s 750 mmHg 49%
    08:00 +21°C° 0 mm 8 m/s 750 mmHg 46%
    09:00 +22°C° 0 mm 7 m/s 750 mmHg 42%
    10:00 +23°C° 0 mm 7 m/s 750 mmHg 39%
    11:00 +24°C° 0 mm 7 m/s 750 mmHg 37%
    12:00 +24°C° 0 mm 6 m/s 750 mmHg 36%
    13:00 +26°C° 0 mm 6 m/s 749 mmHg 34%
    14:00 +26°C° 0 mm 6 m/s 749 mmHg 35%
    15:00 +26°C° 0 mm 6 m/s 749 mmHg 35%
    16:00 +26°C° 0 mm 5 m/s 749 mmHg 36%
    17:00 +23°C° 0 mm 5 m/s 750 mmHg 40%
    18:00 +22°C° 0 mm 5 m/s 751 mmHg 45%
    19:00 +21°C° 0 mm 4 m/s 751 mmHg 50%
    20:00 +19°C° 0 mm 4 m/s 752 mmHg 56%
    21:00 +18°C° 0 mm 4 m/s 752 mmHg 61%
    22:00 +15°C° 0 mm 4 m/s 752 mmHg 67%
    23:00 +15°C° 0 mm 5 m/s 752 mmHg 69%

    25 Noiembrie, Duminică

    Timp Temperatura Precipitaţii Vânt Presiune Umiditate
    00:00 +15°C° 0 mm 5 m/s 752 mmHg 70%
    01:00 +14°C° 0 mm 5 m/s 751 mmHg 72%
    02:00 +14°C° 0 mm 5 m/s 752 mmHg 73%
    03:00 +13°C° 0 mm 5 m/s 752 mmHg 74%
    04:00 +13°C° 0 mm 5 m/s 752 mmHg 75%
    05:00 +15°C° 0 mm 4 m/s 752 mmHg 68%
    06:00 +18°C° 0 mm 4 m/s 753 mmHg 60%
    07:00 +19°C° 0 mm 4 m/s 753 mmHg 53%
    08:00 +21°C° 0 mm 4 m/s 753 mmHg 47%
    09:00 +23°C° 0 mm 4 m/s 752 mmHg 41%
    10:00 +26°C° 0 mm 3 m/s 752 mmHg 36%
    11:00 +27°C° 0 mm 3 m/s 752 mmHg 35%
    12:00 +28°C° 0 mm 3 m/s 751 mmHg 33%
    13:00 +29°C° 0 mm 3 m/s 750 mmHg 32%
    14:00 +27°C° 0 mm 3 m/s 750 mmHg 39%
    15:00 +26°C° 0 mm 4 m/s 750 mmHg 46%
    16:00 +23°C° 0 mm 4 m/s 750 mmHg 53%
    17:00 +21°C° 0.2 mm 3 m/s 751 mmHg 65%
    18:00 +19°C° 0.2 mm 2 m/s 751 mmHg 77%
    19:00 +18°C° 0.2 mm 1 m/s 752 mmHg 89%
    20:00 +16°C° 0 mm 1 m/s 752 mmHg 91%
    21:00 +15°C° 0 mm 1 m/s 752 mmHg 93%
    22:00 +15°C° 0 mm 1 m/s 752 mmHg 95%
    23:00 +14°C° 0 mm 1 m/s 751 mmHg 95%

    26 Noiembrie, Luni

    Timp Temperatura Precipitaţii Vânt Presiune Umiditate
    00:00 +14°C° 0 mm 1 m/s 751 mmHg 96%
    01:00 +14°C° 0 mm 2 m/s 751 mmHg 96%
    02:00 +14°C° 0 mm 2 m/s 751 mmHg 96%
    03:00 +14°C° 0 mm 2 m/s 751 mmHg 97%
    04:00 +13°C° 0 mm 3 m/s 751 mmHg 97%
    05:00 +14°C° 0 mm 3 m/s 752 mmHg 92%
    06:00 +17°C° 0 mm 3 m/s 752 mmHg 87%
    07:00 +19°C° 0 mm 3 m/s 753 mmHg 82%
    08:00 +21°C° 0 mm 3 m/s 753 mmHg 70%
    09:00 +25°C° 0 mm 3 m/s 752 mmHg 58%
    10:00 +28°C° 0 mm 3 m/s 752 mmHg 46%
    11:00 +27°C° 0 mm 3 m/s 752 mmHg 47%
    12:00 +27°C° 0 mm 3 m/s 751 mmHg 48%
    13:00 +27°C° 0 mm 4 m/s 751 mmHg 49%
    14:00 +27°C° 0 mm 4 m/s 751 mmHg 50%
    15:00 +27°C° 0 mm 4 m/s 751 mmHg 51%
    16:00 +27°C° 0 mm 4 m/s 750 mmHg 52%
    17:00 +25°C° 0 mm 3 m/s 751 mmHg 60%
    18:00 +22°C° 0 mm 3 m/s 752 mmHg 68%
    19:00 +20°C° 0 mm 3 m/s 752 mmHg 76%
    20:00 +19°C° 0 mm 2 m/s 752 mmHg 80%
    21:00 +18°C° 0 mm 2 m/s 753 mmHg 84%
    22:00 +17°C° 0 mm 2 m/s 753 mmHg 88%
    23:00 +18°C° 0 mm 1 m/s 753 mmHg 91%
    Arată mai mult